Location: Corocito
(10.1894°N, 67.0986°W)
Time: 11:29:01
(UTC+00:00)

Cosmos 192 - Pass Details

Date: 29 May 2024
Orbit: 698 x 710 km, 74.0° (Epoch: 16 June)

Event Time Altitude Azimuth Distance (km) Brightness Sun altitude
Rises 23:26:47 0° 350° (N) 3,095 8.2 -10.0°
Reaches altitude 10° 23:29:07 10° 352° (N) 2,177 7.3 -10.5°
Maximum altitude 23:34:02 75° 77° (ENE) 735 4.3 -11.6°
Drops below altitude 10° 23:38:56 10° 163° (SSE) 2,178 6.5 -12.7°
Enters shadow 23:39:43 - 163° (SSE) 2,483 6.8 -12.9°
